DW4554 Weather Reports


Display with metric or nautical units.
time (UTC)temp
F
wind
direction
speed
MPH
gust
MPH
rain 1hr
in
rain 24hr
in
rain mn
in
humidity
%
barometer
mb
20191216023502 39 0 0.0 0.0 0.00 0.00 0.00 90 1015.2
20191216022457 39 0 0.0 0.0 0.00 0.00 0.00 90 1015.1
20191216020455 39 0 0.0 0.0 0.00 0.00 0.00 89 1015.1
20191216015450 40 0 0.0 0.0 0.00 0.00 0.00 89 1015.0
20191216013446 41 0 0.0 0.0 0.00 0.00 0.00 89 1015.1
20191216012445 41 0 0.0 0.0 0.00 0.00 0.00 89 1015.1
20191216010440 42 0 0.0 0.0 0.00 0.00 0.00 89 1015.2
20191216005438 42 0 0.0 0.0 0.00 0.00 0.00 89 1015.2
20191216003433 42 0 0.0 0.0 0.00 0.00 0.00 90 1014.9
20191216002430 42 0 0.0 0.0 0.00 0.00 0.00 90 1014.9
20191216000422 41 0 0.0 0.0 0.00 0.00 0.00 90 1015.0
20191215235432 41 0 0.0 0.0 0.00 0.00 0.00 90 1015.0
20191215233516 41 0 0.0 0.0 0.00 0.00 0.00 90 1014.7
20191215232514 41 0 0.0 0.0 0.00 0.00 0.00 90 1014.8
20191215230510 41 0 0.0 0.0 0.00 0.00 0.00 90 1014.6
20191215225506 41 0 0.0 0.0 0.00 0.00 0.00 90 1014.5
20191215223504 41 0 0.0 0.0 0.00 0.00 0.00 89 1014.3
20191215222457 41 0 0.0 0.0 0.00 0.00 0.00 89 1014.3
20191215220454 42 0 0.0 0.0 0.00 0.00 0.00 89 1014.1
20191215215451 42 0 0.0 0.0 0.00 0.00 0.00 88 1014.2
20191215213446 42 0 0.0 0.0 0.00 0.00 0.00 88 1014.0
20191215212444 42 0 0.0 0.0 0.00 0.00 0.00 88 1014.0
20191215210439 42 0 0.0 0.0 0.00 0.00 0.00 87 1013.8
20191215205437 42 0 0.0 0.0 0.00 0.00 0.00 88 1014.0
20191215203431 42 0 0.0 0.0 0.00 0.00 0.00 88 1013.4
20191215202418 42 0 0.0 0.0 0.00 0.00 0.00 88 1012.8
20191215200420 42 0 0.0 0.0 0.00 0.00 0.00 87 1012.5
20191215195442 42 0 0.0 0.0 0.00 0.00 0.00 87 1012.3
20191215193524 42 0 0.0 0.0 0.00 0.00 0.00 86 1012.1
20191215192522 42 0 0.0 0.0 0.00 0.00 0.00 85 1012.0
20191215190519 43 0 0.0 0.0 0.00 0.00 0.00 84 1011.6
20191215185511 43 0 0.0 0.0 0.00 0.00 0.00 84 1011.3
20191215183508 43 0 0.0 0.0 0.00 0.00 0.00 82 1011.3
20191215182504 43 0 0.0 0.0 0.00 0.00 0.00 82 1011.3
20191215180459 43 0 0.0 0.0 0.00 0.00 0.00 81 1011.1
20191215175457 43 0 0.0 0.0 0.00 0.00 0.00 80 1011.1
20191215173450 43 0 0.0 0.0 0.00 0.00 0.00 79 1010.7
20191215172449 43 0 0.0 0.0 0.00 0.00 0.00 79 1010.7
20191215170440 44 0 0.0 0.0 0.00 0.00 0.00 78 1010.3
20191215165439 44 0 0.0 0.0 0.00 0.00 0.00 78 1010.5
20191215163432 44 0 0.0 0.0 0.00 0.00 0.00 77 1010.0
20191215162453 44 0 0.0 0.0 0.00 0.00 0.00 76 1009.8
20191215160533 44 0 0.0 0.0 0.00 0.00 0.00 76 1009.8
20191215155531 45 0 0.0 0.0 0.00 0.00 0.00 75 1009.6
20191215153529 46 0 0.0 0.0 0.00 0.00 0.00 74 1009.3
20191215152527 46 0 0.0 0.0 0.00 0.00 0.00 73 1009.3
20191215150523 46 0 0.0 0.0 0.00 0.00 0.00 72 1008.7
20191215145516 46 0 0.0 0.0 0.00 0.00 0.00 71 1008.8
20191215143513 47 0 0.0 0.0 0.00 0.00 0.00 70 1008.6
20191215142504 48 0 0.0 0.0 0.00 0.00 0.00 69 1008.8
20191215140501 49 0 0.0 0.0 0.00 0.00 0.00 68 1008.7
20191215135500 49 0 0.0 0.0 0.00 0.00 0.00 67 1008.9
20191215133450 49 0 0.0 0.0 0.00 0.00 0.00 67 1008.8
20191215132447 49 0 0.0 0.0 0.00 0.00 0.00 66 1008.6
20191215130444 49 0 0.0 0.0 0.00 0.00 0.00 67 1008.7
20191215125442 49 0 0.0 0.0 0.00 0.00 0.00 71 1008.5
20191215123436 49 0 0.0 0.0 0.00 0.00 0.00 71 1007.6
20191215122432 49 0 0.0 0.0 0.00 0.00 0.00 71 1007.4
20191215120414 49 0 0.0 0.0 0.00 0.00 0.00 71 1007.7
20191215115416 49 0 0.0 0.0 0.00 0.00 0.00 69 1007.7
20191215113503 48 0 0.0 0.0 0.00 0.00 0.00 72 1007.7
20191215112525 48 0 0.0 0.0 0.00 0.00 0.00 72 1007.9
20191215110522 47 0 0.0 0.0 0.00 0.00 0.00 72 1007.6
20191215105518 47 0 0.0 0.0 0.00 0.00 0.00 72 1007.7
20191215103509 46 0 0.0 0.0 0.00 0.00 0.00 73 1007.8
20191215102459 45 0 0.0 0.0 0.00 0.00 0.00 75 1007.9
20191215100455 44 0 0.0 0.0 0.00 0.00 0.00 80 1008.2
20191215095454 44 0 0.0 0.0 0.00 0.00 0.00 82 1008.4
20191215093452 43 0 0.0 0.0 0.00 0.00 0.00 83 1008.7
20191215092449 42 0 0.0 0.0 0.00 0.00 0.00 85 1008.9
20191215090446 41 0 0.0 0.0 0.00 0.00 0.00 88 1008.5
20191215085442 41 0 0.0 0.0 0.00 0.00 0.00 88 1008.6
20191215083437 40 0 0.0 0.0 0.00 0.00 0.00 88 1008.4
20191215082434 39 0 0.0 0.0 0.00 0.00 0.00 88 1008.5
20191215080426 39 0 0.0 0.0 0.00 0.00 0.00 87 1008.5
20191215075423 39 0 0.0 0.0 0.00 0.00 0.00 87 1008.5
20191215073517 38 0 0.0 0.0 0.00 0.00 0.00 88 1008.4
20191215072521 38 0 0.0 0.0 0.00 0.00 0.00 88 1008.6
20191215070518 37 0 0.0 0.0 0.00 0.00 0.00 88 1008.5
20191215065510 37 0 0.0 0.0 0.00 0.00 0.00 89 1008.8
20191215063507 36 0 0.0 0.0 0.00 0.00 0.00 89 1009.0
20191215062505 36 0 0.0 0.0 0.00 0.00 0.00 90 1009.1
20191215060459 36 0 0.0 0.0 0.00 0.00 0.00 89 1009.0
20191215055457 35 0 0.0 0.0 0.00 0.00 0.00 89 1009.0
20191215053452 35 0 0.0 0.0 0.00 0.00 0.00 89 1009.3
20191215052450 35 0 0.0 0.0 0.00 0.00 0.00 89 1009.3
20191215050444 35 0 0.0 0.0 0.00 0.00 0.00 89 1009.0
20191215045442 35 0 0.0 0.0 0.00 0.00 0.00 89 1008.7
20191215043435 35 0 0.0 0.0 0.00 0.00 0.00 88 1008.9
20191215042512 35 0 0.0 0.0 0.00 0.00 0.00 87 1008.9
20191215040508 36 0 0.0 0.0 0.00 0.00 0.00 88 1008.6
20191215035500 36 0 0.0 0.0 0.00 0.00 0.00 87 1008.7
20191215033520 36 0 0.0 0.0 0.00 0.00 0.00 87 1008.6
20191215032518 36 0 0.0 0.0 0.00 0.00 0.00 87 1008.5
20191215030516 37 0 0.0 0.0 0.00 0.00 0.00 87 1008.2
20191215025513 37 0 0.0 0.0 0.00 0.00 0.00 87 1008.2